loading
|

THOR AGENA B DEB, 511

Orbit data source: Space-Track

THOR AGENA B DEB, 511 is space debris in LEO originally from a launch on Sat, 29 Sep 1962 UTC launched from the Air Force Western Test Range (AFWTR). Debris objects in space refer to the collection of defunct objects orbiting the Earth. Examples of debris include non-operational satellites, rocket bodies, and fragments generated from explosions, collisions, or faulty payload assembly.

Loading next visibility...
Loading greatness...
THOR AGENA B DEB details
Identifier
511, 1962-049D
Orbit
LEO
Last TLE update9 hours ago
Origin
Flag of USDRTE (US)
ManufacturerUnknown
Mission statusUnknown
MissionUnknown
Bus & MotorUnknown
MassUnknown
Launch date (UTC)
1962-09-29 (62 years ago)
Launch vehicleUnknown
Launch site
Air Force Western Test Range (AFWTR)
Object type
Payload
Rocket body
Debris
Radar Cross SectionSmall (<0.1 m²)

Expand to show TLE details & history

TLE from 9 hours ago
0 THOR AGENA B DEB
1   511U 62049D   24258.89221244  .00000201  00000-0  22360-3 0  9990
2   511  80.4249 106.9110 0031375 182.8932 237.9524 13.68434030 92472
Epoch: 2024-09-14T21:24Z
Definitive object data (Epoch: 2024-09-14T21:24:47.154Z)
Latitude59.25314°
Longitude167.75751°
Altitude1,027.512 km
Speed7.337 km/s
True Right ascension08h 13m 11s
True Declination59° 06' 26"
Sunlit
Object was in daylight at TLE epoch
Predictive object data (real-time)
Latitude62.20294°
Longitude-47.5647°
Altitude1,006.157 km
Speed7.359 km/s
Apparent Right ascension13h 41m 00s
Apparent Declination24° 17' 50"
Sunlit
Object is in daylight
Predictive observer data (real-time)
Local Sidereal Time23:05:54
Azimuth323.508° NNW
Elevation-16.319°
Doppler factor1
Orbital elements
Apogee1,025.625 km
Perigee979.312 km
Semi-major axis7,380.606 km
Eccentricity0.0031375
Inclination80.4249°
RAAN106.911°
Arg. of periapsis182.8932°
True anomaly237.64829°
Mean anomaly237.9524°
Eccentric anomaly237.80028°
Mean motion3.42299 °/min
BSTAR0.0002236
Period105.17 mins
No data available
Other satellites on launch #49 in the year 1962 (1962-09-29 UTC)

THOR AGENA B DEB Visibility forecast

Observer location: 39.9160978°, -105.1181434

THOR AGENA B DEB is not visible in the next 10 days
Span
Click to sort rows by Start time (UTC) header in descending order
Start Az.
Max El. time (UTC)
Max El. Az.
Max El.
End time (UTC)
End Az.